Wind_Speed
25 24 23 21 18 15 13 11 15 22 28 32 38 45 48 47 50 54 57 52 51 49 47 43 40 45 43 43 40 36 36 30 14 17 20 18 22 24 25 26 28 28 31 33 38
31 30 28 27 25 23 21 18 15 15 20 27 31 38 47 51 52 55 54 57 53 53 52 47 45 45 46 45 43 43 42 38 37 34 24 26 27 25 24 26 27 26 27 32 37
39 37 35 34 32 30 28 26 23 19 17 20 27 31 39 48 54 56 57 57 57 55 55 52 48 47 49 49 48 47 48 40 34 34 33 31 29 24 25 25 25 25 26 29 35
46 45 43 41 39 36 35 33 30 27 23 20 22 27 31 39 49 54 56 54 58 57 58 55 54 52 51 51 49 49 48 41 37 34 31 33 29 27 25 24 26 26 25 28 33
50 50 50 49 46 44 42 40 37 34 30 26 24 22 28 33 39 47 51 54 56 56 58 58 56 56 55 53 50 46 45 44 41 33 34 31 28 29 28 27 26 23 25 27 30
55 54 54 53 52 51 49 46 44 41 37 33 30 26 26 30 35 41 48 52 55 56 56 57 58 58 56 50 50 47 43 41 40 37 35 33 29 30 28 28 25 23 23 26 23
61 60 60 60 58 56 55 53 51 48 44 40 36 33 31 23 33 38 43 47 51 53 56 57 56 57 55 53 51 48 49 44 42 41 37 34 31 29 28 28 24 22 24 24 21
64 66 66 66 64 63 60 58 56 54 52 48 43 39 39 28 32 36 38 43 47 51 52 52 52 55 52 52 50 50 47 48 47 43 37 33 34 30 28 25 24 22 23 21 21
65 66 66 69 70 69 67 65 61 59 57 54 49 46 44 39 34 34 35 40 43 47 48 50 50 52 53 50 50 51 48 47 45 40 36 34 34 32 27 24 22 22 21 18 17
69 68 68 69 71 73 73 71 69 65 62 60 57 55 49 44 39 40 39 38 41 44 44 47 50 50 50 49 50 49 49 47 42 40 35 34 31 31 26 25 25 20 17 16 13
68 69 71 72 73 73 74 76 76 72 70 65 63 61 56 52 47 46 41 37 36 39 42 47 45 45 50 50 53 54 53 50 45 41 36 33 31 29 21 15 8 9 15 14 10
71 72 72 74 74 75 76 77 79 78 77 72 69 65 63 59 54 53 48 43 39 40 43 41 42 47 50 53 52 50 48 47 47 42 35 34 33 25 22 19 16 16 15 12 10
73 73 74 75 76 76 77 79 79 80 80 81 74 71 68 63 65 59 53 49 44 40 38 37 47 52 48 48 48 46 45 45 44 43 41 39 34 30 30 28 24 22 16 12 13
72 72 70 72 76 77 78 79 80 83 81 85 81 78 77 71 71 68 60 56 50 43 39 41 47 46 46 42 43 43 45 45 40 43 40 40 22 31 32 33 27 23 17 14 15
48 50 55 61 68 77 79 80 80 81 83 87 86 84 82 79 77 73 68 63 56 53 44 43 43 41 41 40 39 44 46 43 43 45 43 40 29 22 39 26 25 25 21 17 18
38 35 37 44 54 64 76 81 83 82 85 90 90 92 88 87 83 81 75 69 66 61 50 51 45 40 42 44 39 47 47 45 43 47 47 43 41 53 44 37 25 24 23 19 23
35 32 31 32 39 50 61 75 81 85 88 97 96 97 95 92 88 85 81 76 69 63 55 53 42 42 44 46 46 47 45 47 44 44 43 45 41 44 41 36 24 24 24 20 25
33 34 32 27 29 38 48 60 76 88 92 93 92 92 91 93 91 89 86 80 76 70 68 62 51 45 43 41 44 42 40 40 40 40 51 49 39 36 36 38 30 27 23 22 30
32 32 36 32 27 24 34 47 60 79 88 93 93 95 97 101 102 99 94 86 82 77 72 66 57 55 52 48 46 46 42 41 44 47 51 50 46 34 39 35 32 31 31 29 31
30 27 40 37 35 29 25 30 48 61 80 92 96 98 100 105 102 100 96 92 89 86 82 74 68 59 56 55 51 50 46 45 43 48 52 51 48 41 42 42 35 36 37 32 32
26 25 31 38 39 37 33 30 34 51 67 86 97 99 101 107 107 103 100 98 99 94 85 82 75 65 62 54 53 48 50 48 45 46 46 51 49 46 50 46 45 42 37 32 34
31 29 30 33 35 36 35 36 35 42 61 75 95 101 105 111 112 109 105 107 100 94 92 87 78 71 61 54 54 50 49 49 44 41 47 54 54 53 44 41 49 47 43 41 29
34 30 33 43 46 46 40 38 36 40 54 71 85 101 106 111 112 111 112 114 103 98 94 90 84 77 67 61 54 46 47 50 50 51 49 50 55 53 52 49 52 55 54 48 42
33 32 35 39 40 43 43 41 36 36 51 69 81 96 108 111 112 114 114 112 108 104 97 91 86 80 67 58 56 55 46 52 53 50 48 47 60 53 53 52 52 54 55 56 45
34 30 38 48 47 48 42 37 35 26 46 60 73 81 100 111 112 116 119 116 110 106 102 95 87 80 69 65 58 52 52 52 51 47 49 54 56 51 56 50 53 46 53 48 44
35 36 41 48 54 53 39 33 26 22 36 55 68 75 90 107 113 117 119 112 112 111 107 99 94 86 78 71 63 54 53 52 52 53 53 58 56 54 55 52 47 49 53 50 45
37 36 42 51 54 52 36 27 28 20 31 44 55 67 74 94 107 115 113 111 114 112 106 103 99 89 82 75 68 56 50 49 53 55 56 59 57 58 56 52 50 46 45 50 46
Wind_Direction
263 263 264 265 266 259 254 248 240 235 232 231 230 228 226 227 224 224 224 225 222 219 219 216 220 225 225 229 235 235 238 236 240 245 272 283 285 292 289 289 293 298 302 313 318
262 260 258 257 258 261 261 255 245 241 237 234 234 231 228 225 227 228 226 224 222 222 220 219 219 224 228 229 235 235 238 241 248 258 271 276 282 288 286 290 293 298 308 314 315
261 259 256 253 252 253 254 256 253 247 241 238 235 234 231 226 226 227 227 226 225 224 224 224 222 225 226 230 234 239 242 243 245 255 264 273 282 286 287 287 293 299 313 314 316
257 256 254 253 251 248 249 249 250 251 247 241 240 234 234 227 225 225 228 228 225 224 223 225 224 228 228 228 234 240 246 249 247 257 262 271 280 280 285 296 299 306 314 317 315
256 253 252 251 249 247 245 245 246 246 246 246 242 240 233 229 227 221 224 227 227 226 226 226 229 231 231 230 233 238 243 248 254 256 263 267 270 277 287 292 297 307 310 313 315
258 256 254 251 248 246 244 242 241 241 242 242 243 241 242 231 227 218 223 225 227 229 228 227 227 228 232 233 233 234 238 247 250 248 253 260 265 276 280 288 293 305 309 307 323
259 257 254 253 250 247 244 241 240 238 237 237 237 240 242 234 233 219 221 222 225 227 228 228 228 228 229 230 232 233 234 237 241 245 250 258 266 269 279 285 288 303 301 309 322
261 257 254 253 249 248 246 242 238 237 236 234 233 234 240 235 236 233 220 221 222 224 227 227 227 229 228 230 232 236 237 239 243 248 251 258 260 265 273 279 287 296 298 312 314
264 259 255 252 249 247 244 242 239 236 234 232 230 230 233 233 235 238 231 225 224 224 224 227 226 225 229 231 230 231 232 238 241 243 246 250 253 258 265 271 277 285 295 306 311
268 264 259 255 251 247 244 241 238 235 234 231 228 227 228 228 231 235 232 227 226 224 224 225 225 225 228 230 225 228 231 233 234 234 236 239 243 250 259 269 280 276 291 298 303
269 265 261 257 251 246 243 240 237 235 232 232 229 227 225 225 225 231 234 235 229 228 224 222 222 221 221 221 226 227 228 229 232 229 231 233 236 244 261 252 225 257 281 289 284
272 266 261 256 251 247 243 238 235 233 233 229 228 229 223 224 223 225 229 232 227 225 225 222 220 221 220 221 223 225 227 229 231 232 228 230 234 237 233 224 267 288 267 276 252
277 272 265 259 253 248 244 239 234 231 230 229 226 226 227 221 222 222 223 229 230 226 225 217 222 218 218 221 222 223 224 225 224 225 222 227 226 226 244 244 259 261 255 256 230
282 276 267 257 252 248 242 238 234 229 227 230 223 224 225 221 222 220 218 221 229 229 222 219 224 221 220 220 221 220 219 222 217 218 219 220 209 234 234 237 252 243 235 233 224
283 272 264 256 247 243 240 236 232 229 226 225 224 221 222 221 220 219 216 218 220 226 221 223 221 222 217 217 218 216 216 216 210 212 212 207 181 196 232 231 241 234 224 224 212
302 283 267 258 248 241 238 233 229 226 224 223 220 221 219 219 218 219 215 215 216 222 220 224 221 217 214 211 211 217 214 212 202 206 203 199 198 202 216 206 230 235 229 222 207
311 305 289 268 253 246 239 233 230 225 221 222 218 218 217 218 218 217 215 213 214 218 222 228 222 216 219 214 211 214 210 210 200 205 206 199 199 210 203 210 204 209 226 222 213
310 309 302 298 271 251 243 235 230 226 223 221 219 216 218 218 218 217 217 214 213 213 215 218 216 219 216 217 216 214 215 209 206 202 196 198 223 210 203 210 209 216 222 219 207
309 304 301 305 297 272 252 240 232 228 223 221 217 214 213 216 214 215 214 212 212 212 214 217 215 213 211 211 212 214 209 209 203 199 207 212 216 205 211 201 200 210 212 213 209
315 298 299 297 292 294 277 249 237 229 225 221 218 214 211 217 214 215 214 212 209 210 211 211 215 214 211 210 206 207 205 207 205 208 208 209 210 206 206 200 198 190 196 192 208
309 299 292 297 298 294 286 273 251 230 226 221 219 216 211 213 214 212 212 213 213 209 208 212 213 211 216 210 208 207 205 203 205 207 205 208 206 203 206 199 190 184 199 202 201
317 307 305 302 303 300 293 281 261 232 227 222 218 214 213 211 213 209 210 213 213 212 209 210 213 214 210 210 213 204 202 201 202 204 202 204 206 202 207 202 188 189 189 192 204
321 305 310 315 313 307 300 286 268 251 225 223 219 214 212 214 210 211 208 213 208 210 212 210 210 214 212 208 207 211 203 201 201 201 202 202 208 197 203 198 201 193 190 207 219
320 314 320 308 309 307 302 289 277 251 235 223 221 213 210 211 210 210 209 210 209 206 208 213 213 215 209 210 208 201 204 202 206 204 200 196 210 201 203 204 209 209 210 220 218
319 323 322 320 320 319 312 298 283 249 230 226 224 218 211 209 209 209 211 207 208 208 205 207 214 214 209 208 213 208 197 199 207 199 201 202 208 204 208 200 209 210 217 221 219
328 321 323 321 323 323 317 304 292 245 227 227 221 219 212 209 206 208 210 207 207 207 207 202 207 210 210 209 208 208 206 197 200 204 199 205 207 207 209 208 201 209 216 218 217
328 321 324 325 326 326 318 309 291 258 228 227 222 219 213 211 206 209 209 206 206 207 205 206 203 205 209 209 207 204 208 206 204 208 202 210 207 214 212 210 203 209 213 216 211
Height
10908 10908 10908 10909 10910 10910 10910 10910 10911 10912 10915 10917 10920 10925 10931 10936 10941 10947 10953 10964 10969 10973 10979 10984 10984 10985 10991 10993 10997 10999 11002 11006 11006 11009 11013 11017 11021 11022 11018 11019 11021 11022 11022 11018 11015
10900 10901 10903 10904 10905 10905 10906 10906 10907 10908 10909 10911 10913 10916 10922 10928 10932 10938 10949 10951 10960 10966 10972 10977 10981 10981 10984 10989 10992 10994 10998 11004 11005 11010 11014 11014 11015 11019 11020 11019 11019 11021 11020 11017 11014
10891 10893 10894 10896 10898 10899 10900 10901 10903 10904 10905 10906 10908 10910 10913 10919 10924 10929 10933 10943 10951 10958 10964 10970 10975 10976 10980 10983 10985 10989 10993 11002 11006 11007 11009 11009 11014 11014 11016 11019 11019 11019 11018 11016 11012
10880 10881 10883 10886 10889 10891 10892 10894 10896 10898 10900 10901 10903 10905 10906 10910 10912 10921 10928 10936 10942 10950 10955 10962 10967 10969 10975 10978 10981 10985 10989 10994 10997 11001 11006 11006 11009 11011 11014 11016 11017 11016 11014 11013 11012
10868 10869 10871 10874 10877 10880 10883 10886 10888 10891 10893 10895 10897 10899 10900 10901 10906 10913 10918 10923 10931 10939 10946 10954 10960 10963 10965 10971 10978 10983 10987 10988 10992 10999 11001 11004 11007 11009 11012 11014 11016 11015 11013 11013 11012
10855 10857 10858 10861 10863 10867 10871 10875 10878 10882 10885 10888 10890 10892 10893 10896 10898 10906 10908 10915 10922 10929 10937 10944 10949 10953 10960 10968 10972 10979 10985 10986 10989 10995 10999 11002 11007 11007 11012 11013 11014 11013 11013 11011 11009
10839 10841 10843 10846 10849 10852 10856 10861 10866 10871 10875 10879 10883 10885 10886 10891 10890 10895 10900 10907 10912 10920 10925 10932 10941 10949 10953 10960 10966 10973 10976 10982 10985 10990 10996 11001 11003 11007 11010 11011 11011 11012 11012 11010 11007
10821 10824 10825 10828 10832 10836 10842 10847 10852 10856 10862 10868 10873 10877 10876 10884 10883 10886 10894 10898 10903 10910 10916 10924 10932 10937 10945 10950 10961 10964 10972 10976 10979 10987 10994 10999 11001 11006 11006 11008 11009 11011 11009 11008 11006
10801 10803 10805 10808 10812 10817 10823 10829 10837 10843 10847 10855 10862 10866 10868 10874 10877 10879 10884 10889 10895 10901 10907 10914 10922 10928 10934 10944 10950 10956 10963 10968 10975 10982 10989 10995 10996 10999 11002 11005 11006 11008 11007 11007 11005
10778 10781 10783 10787 10791 10796 10802 10809 10817 10827 10833 10840 10848 10852 10859 10865 10871 10871 10874 10879 10885 10893 10899 10905 10911 10921 10929 10937 10941 10948 10954 10959 10967 10973 10983 10987 10990 10993 10997 11000 11002 11004 11006 11006 11005
10755 10755 10757 10759 10764 10770 10777 10786 10794 10807 10814 10825 10833 10839 10847 10852 10858 10861 10867 10873 10878 10885 10889 10893 10904 10913 10916 10923 10926 10933 10941 10950 10958 10967 10975 10981 10984 10987 10993 10995 10996 10998 11003 11004 11004
10727 10726 10729 10732 10736 10743 10750 10759 10771 10784 10793 10805 10815 10826 10833 10839 10849 10850 10857 10863 10870 10873 10877 10890 10897 10898 10905 10911 10919 10928 10937 10944 10951 10962 10970 10974 10978 10986 10987 10990 10991 10995 10999 11001 11004
10699 10698 10698 10703 10706 10715 10723 10732 10745 10759 10772 10780 10798 10809 10815 10829 10829 10838 10846 10852 10859 10866 10874 10882 10874 10884 10894 10903 10914 10923 10929 10936 10945 10953 10962 10966 10974 10976 10982 10984 10988 10992 10994 10997 11002
10668 10664 10663 10669 10675 10683 10694 10704 10718 10731 10751 10754 10777 10786 10795 10809 10814 10820 10834 10840 10849 10858 10864 10869 10867 10880 10890 10900 10907 10915 10920 10926 10939 10943 10953 10959 10973 10972 10977 10978 10983 10987 10989 10993 10998
10640 10636 10634 10635 10641 10649 10661 10674 10689 10706 10722 10732 10750 10763 10774 10788 10796 10807 10817 10827 10838 10842 10855 10856 10864 10873 10885 10892 10899 10902 10909 10918 10928 10934 10939 10954 10963 10959 10970 10977 10978 10981 10984 10988 10993
10622 10617 10614 10613 10616 10623 10632 10643 10659 10680 10690 10701 10720 10732 10749 10762 10776 10787 10801 10813 10819 10828 10843 10844 10857 10867 10873 10878 10887 10888 10900 10909 10919 10925 10932 10944 10951 10956 10966 10970 10977 10977 10981 10983 10988
10611 10604 10600 10602 10601 10602 10610 10619 10635 10648 10661 10660 10688 10705 10724 10741 10759 10771 10783 10798 10811 10822 10835 10838 10853 10859 10864 10872 10877 10882 10891 10901 10913 10924 10933 10936 10942 10946 10961 10966 10971 10975 10974 10980 10987
10603 10595 10589 10588 10588 10587 10590 10596 10606 10616 10631 10650 10675 10699 10716 10730 10742 10754 10768 10785 10795 10806 10813 10823 10840 10851 10859 10866 10873 10879 10887 10897 10908 10919 10925 10930 10935 10941 10951 10957 10969 10969 10974 10976 10980
10594 10588 10580 10578 10574 10574 10576 10578 10584 10595 10614 10629 10648 10667 10682 10692 10700 10722 10743 10765 10779 10791 10803 10813 10828 10833 10843 10851 10861 10871 10881 10888 10896 10906 10914 10923 10927 10936 10942 10951 10956 10961 10967 10972 10978
10583 10581 10567 10568 10565 10563 10562 10564 10567 10579 10590 10605 10620 10636 10657 10666 10692 10710 10732 10748 10757 10770 10780 10798 10808 10822 10831 10840 10850 10858 10870 10878 10888 10894 10903 10912 10921 10932 10937 10943 10950 10953 10961 10969 10974
10574 10571 10564 10556 10552 10549 10549 10549 10551 10560 10564 10576 10594 10615 10631 10643 10661 10690 10712 10725 10726 10744 10768 10778 10792 10810 10818 10834 10843 10855 10862 10870 10879 10888 10900 10906 10920 10927 10928 10936 10943 10949 10956 10963 10969
10562 10557 10554 10549 10544 10539 10536 10533 10533 10537 10542 10551 10561 10582 10603 10613 10633 10662 10685 10690 10723 10742 10751 10764 10786 10794 10814 10828 10837 10846 10856 10865 10875 10885 10891 10894 10902 10914 10927 10938 10939 10944 10949 10960 10966
10550 10547 10542 10532 10527 10520 10518 10515 10515 10515 10521 10527 10535 10556 10578 10594 10616 10639 10655 10661 10704 10726 10743 10756 10771 10785 10804 10814 10828 10846 10853 10860 10865 10869 10881 10891 10893 10908 10913 10925 10932 10937 10943 10951 10958
10541 10536 10533 10527 10520 10511 10499 10492 10491 10493 10495 10500 10507 10523 10543 10565 10594 10617 10633 10657 10681 10703 10728 10750 10763 10774 10797 10813 10818 10825 10846 10852 10857 10868 10877 10885 10881 10901 10906 10916 10923 10931 10939 10943 10950
10531 10529 10521 10508 10501 10491 10483 10475 10467 10471 10474 10480 10491 10507 10524 10542 10568 10592 10605 10631 10666 10692 10711 10736 10758 10773 10793 10802 10813 10827 10833 10843 10854 10865 10870 10873 10878 10889 10894 10911 10918 10932 10932 10940 10947
10523 10516 10508 10498 10485 10472 10462 10454 10452 10455 10457 10459 10468 10481 10499 10518 10543 10563 10585 10628 10649 10668 10694 10717 10736 10759 10776 10789 10804 10818 10830 10839 10847 10853 10861 10865 10874 10878 10885 10897 10909 10916 10921 10927 10939
10516 10508 10500 10488 10474 10459 10448 10442 10439 10440 10442 10447 10456 10467 10486 10504 10533 10551 10583 10611 10629 10653 10684 10706 10721 10751 10768 10778 10793 10812 10827 10838 10843 10847 10855 10857 10869 10869 10880 10888 10897 10900 10910 10919 10932